Погода в Пиргосе

Греция     36°23′03″N   25°26′45″E
темп.,
°C
ветер,
м/с
пор.,
м/с
влажн.,
%
обл.,
%
осадки,
мм/ч
давл.,
гПа
погр.,
м
21 июня, пн
пн2100:00+24ссз33800 0.0 101063
03:00+23сз45811 0.0 1010149
06:00+23ссз68770 0.0 1010266
09:00+23с45770 0.0 1011153
12:00+24сз56760 0.0 1012228
15:00+24зсз46720 0.0 1012212
18:00+25з33717 0.0 101285
21:00+25зсз55690 0.0 101274
22 июня, вт
вт2200:00+25зсз4467100 0.0 101244
03:00+24зсз34755 0.0 101237
06:00+24з33760 0.0 101131
09:00+24з33780 0.0 101235
12:00+25зсз22750 0.0 101347
15:00+25сз22700 0.0 1013103
18:00+26сз22700 0.0 101337
21:00+26зсз22711 0.0 101314
23 июня, ср
ср2300:00+25з227399 0.0 101311
03:00+25з44764 0.0 101331
06:00+25сз34770 0.0 101230
09:00+25ссз33730 0.0 101321
12:00+25ссв12740 0.0 101416
15:00+26ссз33700 0.0 101478
18:00+26ссз33700 0.0 101352
21:00+26зсз55720 0.0 101343
24 июня, чт
чт2400:00+25сз56780 0.0 101462
03:00+25сз57800 0.0 101370
06:00+25ссз57800 0.0 101381
09:00+25ссз44800 0.0 101438
12:00+25ссз46820 0.0 101467
15:00+26сз610790 0.0 1014122
18:00+26сз710770 0.0 1013117
21:00+26ссз68760 0.0 101268
25 июня, пт
пт2500:00+25сз811800 0.0 1013122
03:00+25сз811790 0.0 1012117
06:00+25ссз710780 0.0 101188
09:00+25ссз710790 0.0 1012100
12:00+26ссз69780 0.0 101283
15:00+26ссз68780 0.0 101184
18:00+26ссз68760 0.0 101167
21:00+26ссз710770 0.0 101186